GEFSNGP_850_meantemp_126.txt.gz
Temperature
11 11 10 11 11 9 9 9 10 10 10 13 12 11 13 14 14 13 13 13 13 13 12 11 11 10 9 9 8 8 7 6 6 5 5 4 4 3 3 2 2 2 1 1
11 11 10 10 10 10 9 10 9 10 11 12 12 13 12 13 12 12 13 13 13 13 12 11 11 10 9 9 8 7 7 6 5 5 4 4 3 3 2 2 1 1 1 0
9 10 11 10 10 10 9 9 9 10 12 12 11 10 11 12 12 12 13 13 12 12 12 11 10 10 9 8 7 7 6 5 5 4 4 3 3 2 2 1 1 1 0 -0
8 10 10 11 11 11 10 10 9 9 10 10 10 11 11 12 12 12 12 12 12 11 11 10 10 9 8 7 7 6 5 5 4 4 3 3 2 2 1 1 0 0 -0 -1
7 8 9 10 10 10 10 10 9 9 9 9 9 9 10 12 12 12 12 11 11 10 10 9 9 8 7 7 6 5 5 4 4 3 3 2 2 1 1 0 -0 -1 -1 -1
6 8 9 11 11 11 11 10 11 9 9 8 8 8 9 12 11 11 11 10 10 10 9 8 8 7 6 6 5 5 4 4 3 2 2 1 1 0 0 -1 -1 -1 -1 -2
6 7 8 9 10 10 11 11 12 11 10 9 8 10 11 11 11 10 10 9 9 9 8 7 7 6 6 5 4 4 3 3 2 2 1 1 0 -0 -1 -1 -2 -2 -2 -2
6 7 9 9 9 9 11 12 12 12 12 11 11 11 11 10 10 9 9 8 8 7 7 6 6 5 5 4 3 3 2 2 2 1 1 0 -0 -1 -1 -2 -2 -3 -3 -3
8 10 10 10 11 12 13 12 13 13 13 12 11 11 10 9 9 8 8 7 7 6 6 5 5 4 4 3 3 2 2 1 1 0 -0 -1 -1 -2 -2 -3 -3 -4 -4 -5
6 7 9 11 11 12 12 13 13 12 12 11 11 10 9 9 8 7 7 6 6 5 5 5 4 3 3 2 2 1 1 1 0 -0 -1 -1 -2 -2 -3 -3 -4 -5 -5 -6
6 7 8 10 12 13 13 12 12 11 11 11 10 9 9 8 7 6 6 5 5 4 4 4 3 3 2 1 1 0 0 -0 -1 -1 -2 -2 -2 -3 -4 -4 -5 -6 -6 -6
9 9 8 11 13 13 12 12 11 11 10 9 9 8 7 7 6 5 5 4 4 3 3 3 2 2 1 1 0 -0 -1 -1 -2 -2 -3 -3 -4 -4 -4 -5 -5 -6 -7 -7
12 12 12 12 12 11 11 11 10 10 9 8 8 7 6 6 5 5 4 3 3 3 2 2 1 1 1 0 -0 -1 -2 -2 -3 -3 -4 -4 -5 -5 -6 -5 -6 -7 -7 -7
11 10 10 10 10 10 10 9 9 8 7 7 6 6 5 5 4 4 3 3 2 2 1 1 1 0 -0 -1 -1 -2 -2 -3 -3 -4 -4 -5 -5 -6 -7 -7 -7 -7 -7 -8
10 9 9 9 9 8 8 8 7 6 6 5 5 4 4 4 3 3 2 2 1 1 1 0 -0 -0 -1 -2 -2 -3 -3 -3 -4 -5 -5 -6 -6 -7 -7 -8 -8 -8 -8 -8
8 8 8 7 7 7 6 6 6 5 5 4 4 3 3 2 2 2 1 1 1 0 0 -0 -1 -1 -2 -2 -3 -3 -4 -5 -5 -6 -6 -7 -7 -8 -8 -8 -9 -9 -9 -9
6 6 6 5 6 5 5 5 5 4 3 3 3 2 2 2 1 1 1 0 -0 -0 -1 -1 -2 -2 -3 -3 -4 -5 -5 -6 -6 -7 -7 -7 -8 -8 -9 -9 -9 -10 -10 -10
6 7 6 6 5 5 4 4 3 3 2 2 2 1 1 1 1 0 -0 -1 -1 -1 -1 -2 -3 -3 -4 -4 -5 -6 -6 -7 -7 -7 -8 -8 -8 -9 -9 -9 -10 -10 -10 -10
5 5 4 4 4 4 3 3 2 2 1 1 1 1 0 -0 -0 -1 -1 -1 -2 -2 -2 -3 -4 -4 -5 -5 -6 -6 -7 -7 -8 -8 -8 -9 -9 -9 -9 -10 -10 -10 -11 -11
3 3 3 3 2 2 2 2 1 1 1 0 0 -0 -0 -1 -1 -2 -2 -2 -3 -3 -4 -4 -5 -5 -6 -6 -7 -7 -8 -8 -8 -9 -9 -9 -10 -10 -10 -11 -11 -11 -11 -11
2 2 2 2 1 1 1 1 0 0 -0 -0 -1 -1 -1 -2 -2 -3 -3 -3 -3 -4 -5 -5 -6 -6 -7 -7 -8 -8 -8 -9 -9 -9 -10 -10 -10 -11 -11 -11 -12 -12 -12 -12
1 1 1 1 1 0 0 -0 -0 -1 -1 -1 -2 -2 -2 -3 -3 -3 -4 -4 -5 -5 -6 -6 -7 -7 -8 -8 -9 -9 -9 -10 -10 -10 -11 -11 -11 -12 -12 -12 -12 -12 -12 -12
1 0 0 0 -0 -0 -1 -1 -1 -1 -2 -2 -3 -3 -3 -4 -4 -5 -5 -5 -6 -6 -7 -7 -8 -8 -9 -9 -9 -10 -10 -10 -11 -11 -11 -11 -12 -12 -12 -12 -12 -12 -13 -13
-0 -0 -1 -1 -1 -1 -1 -2 -2 -2 -3 -3 -3 -4 -4 -5 -5 -5 -6 -6 -7 -7 -8 -8 -8 -9 -9 -10 -10 -10 -10 -11 -11 -11 -12 -12 -12 -12 -12 -13 -13 -13 -13 -13
-1 -1 -1 -2 -2 -2 -2 -3 -3 -3 -3 -4 -4 -4 -5 -6 -6 -6 -7 -7 -7 -8 -8 -8 -9 -9 -10 -10 -10 -11 -11 -11 -12 -12 -12 -12 -12 -13 -13 -13 -13 -13 -13 -13
-2 -2 -2 -2 -3 -3 -3 -4 -4 -4 -4 -5 -5 -5 -6 -6 -7 -7 -8 -8 -8 -9 -9 -9 -10 -10 -10 -11 -11 -11 -12 -12 -12 -12 -12 -12 -13 -13 -13 -13 -13 -13 -13 -13
-3 -3 -3 -3 -4 -4 -4 -4 -5 -5 -6 -6 -6 -6 -7 -7 -8 -8 -9 -9 -9 -10 -10 -10 -11 -11 -11 -12 -12 -12 -12 -12 -12 -12 -13 -13 -13 -13 -13 -13 -13 -13 -13 -13

GEFSNGP_850_meantemp_132.txt.gz
Temperature
16 15 15 15 15 14 14 16 16 17 18 18 19 19 18 17 15 14 13 13 13 13 12 12 12 12 11 11 10 9 9 9 8 8 7 7 6 6 5 5 4 4 3 3
14 14 14 14 14 14 14 15 16 16 17 18 18 17 16 15 14 13 13 13 13 13 12 12 12 11 11 11 10 9 9 8 8 7 7 6 6 5 5 4 4 3 3 2
15 13 13 14 15 15 14 14 15 16 17 18 17 16 15 14 13 13 13 13 13 13 12 12 11 11 11 10 9 9 8 8 7 7 6 5 5 4 4 3 3 2 2 1
14 13 12 17 16 15 15 15 15 15 16 16 15 14 13 13 12 13 13 13 12 12 12 11 11 11 10 10 9 8 7 7 7 6 5 5 4 4 3 3 2 2 1 1
13 14 15 15 14 13 14 15 16 15 15 15 12 11 13 13 13 13 13 12 12 12 11 11 10 10 9 9 8 8 7 6 6 5 5 4 4 3 3 2 1 1 0 -0
12 12 13 16 15 13 14 15 16 14 14 13 11 14 15 13 13 13 12 12 11 11 10 10 10 9 9 8 8 7 6 6 5 4 4 3 3 2 2 1 1 0 -0 -1
13 13 15 16 12 12 14 16 15 13 13 12 12 14 13 13 12 12 12 11 11 10 10 9 9 8 8 7 7 6 5 5 4 4 3 3 2 2 1 0 -0 -1 -1 -1
13 12 13 13 11 13 16 15 14 13 13 12 12 12 12 12 11 11 11 10 10 9 9 8 8 7 7 6 6 5 4 4 3 3 2 2 1 1 0 -0 -1 -2 -2 -3
14 15 15 12 13 14 14 13 14 14 14 13 12 12 11 11 10 10 10 9 9 8 8 7 7 6 6 5 5 4 4 3 3 2 1 1 0 -0 -1 -1 -2 -3 -3 -4
12 13 13 12 12 13 13 13 13 13 13 13 12 12 11 10 10 9 9 8 8 7 7 6 6 5 5 4 4 3 3 2 2 1 1 0 -0 -1 -1 -2 -3 -3 -4 -4
12 13 12 12 12 13 13 13 13 13 12 12 12 11 10 10 9 8 8 7 7 6 6 5 5 4 4 3 3 2 2 1 1 0 -0 -1 -1 -2 -2 -3 -3 -4 -5 -5
14 14 14 14 14 13 13 13 12 12 11 11 11 10 10 9 8 7 7 6 6 5 5 4 4 3 3 2 2 1 1 0 -0 -1 -1 -2 -2 -3 -3 -4 -4 -4 -5 -6
14 13 13 13 13 12 12 12 11 11 11 10 10 9 8 8 7 6 6 5 5 4 4 3 3 2 2 1 1 0 -0 -1 -1 -2 -2 -3 -4 -4 -5 -5 -5 -5 -6 -6
12 12 11 11 11 11 11 11 10 10 9 9 8 8 7 7 6 5 5 4 4 3 3 2 2 1 1 0 -0 -1 -1 -2 -2 -3 -3 -4 -5 -5 -6 -6 -6 -6 -6 -7
11 11 10 11 10 10 9 9 8 8 8 7 7 6 6 5 5 4 4 3 3 2 2 1 1 1 0 -0 -1 -2 -2 -3 -3 -4 -4 -5 -6 -6 -7 -7 -7 -7 -7 -8
10 9 9 8 8 8 8 7 7 7 6 6 5 5 4 4 4 3 3 2 2 1 1 0 0 -0 -1 -1 -2 -3 -3 -4 -4 -5 -5 -6 -7 -7 -7 -8 -8 -8 -8 -8
8 7 7 7 7 7 6 6 6 6 5 4 4 4 3 3 2 2 2 1 1 0 0 -0 -1 -1 -2 -2 -3 -4 -4 -5 -5 -6 -6 -7 -7 -8 -8 -8 -8 -9 -9 -9
8 8 8 7 6 6 5 5 5 4 4 3 3 2 2 2 2 1 1 0 0 -0 -1 -1 -2 -2 -3 -3 -4 -5 -5 -6 -6 -7 -7 -8 -8 -8 -9 -9 -9 -9 -9 -10
6 6 6 5 5 5 4 4 3 3 3 2 2 2 1 1 1 0 -0 -1 -1 -1 -2 -2 -3 -3 -4 -4 -5 -6 -6 -7 -7 -8 -8 -8 -9 -9 -9 -10 -10 -10 -10 -10
5 4 4 4 4 4 3 3 2 2 2 1 1 1 0 0 -0 -1 -1 -1 -2 -2 -3 -3 -4 -4 -5 -5 -6 -7 -7 -7 -8 -8 -9 -9 -9 -10 -10 -10 -10 -11 -11 -11
3 3 3 3 2 2 2 2 1 1 1 0 0 -0 -0 -1 -1 -2 -2 -3 -3 -4 -4 -4 -5 -5 -6 -7 -7 -7 -8 -8 -9 -9 -9 -10 -10 -10 -11 -11 -11 -11 -12 -12
2 2 2 2 2 1 1 1 0 0 -0 -0 -1 -1 -1 -2 -2 -3 -3 -4 -4 -5 -5 -6 -6 -6 -7 -8 -8 -8 -9 -9 -9 -10 -10 -11 -11 -11 -11 -11 -12 -12 -12 -12
1 1 1 1 0 0 -0 -0 -1 -1 -1 -1 -2 -2 -3 -3 -3 -4 -5 -5 -5 -6 -6 -7 -7 -7 -8 -8 -9 -9 -9 -10 -10 -11 -11 -11 -11 -11 -12 -12 -12 -12 -12 -12
-0 -0 -0 -1 -1 -1 -1 -2 -2 -2 -2 -2 -3 -3 -4 -4 -4 -5 -5 -6 -6 -6 -7 -7 -8 -8 -9 -9 -9 -10 -10 -11 -11 -11 -11 -11 -12 -12 -12 -12 -12 -12 -12 -12
-1 -1 -1 -2 -2 -2 -2 -3 -3 -3 -3 -3 -4 -4 -4 -5 -5 -6 -6 -6 -7 -7 -8 -8 -8 -9 -9 -9 -10 -10 -11 -11 -11 -12 -12 -12 -12 -12 -12 -12 -13 -13 -13 -13
-2 -2 -2 -3 -3 -3 -3 -4 -4 -4 -4 -5 -5 -5 -5 -6 -6 -7 -7 -7 -8 -8 -8 -9 -9 -9 -10 -10 -10 -11 -11 -11 -11 -11 -11 -12 -12 -12 -12 -12 -12 -13 -13 -13
-3 -3 -3 -4 -4 -4 -4 -4 -5 -5 -5 -6 -6 -6 -6 -7 -7 -8 -8 -8 -9 -9 -9 -9 -10 -10 -10 -11 -11 -11 -11 -11 -11 -11 -12 -12 -12 -12 -12 -12 -12 -13 -13 -13

GEFSNGP_850_meantemp_138.txt.gz
Temperature
16 17 17 16 16 15 15 15 15 16 16 17 18 18 18 19 18 18 17 16 15 14 13 13 12 12 11 11 10 10 9 9 9 9 8 8 7 7 7 6 6 6 6 5
15 16 16 16 16 15 15 15 15 15 16 17 18 19 18 18 18 17 16 16 15 14 13 13 12 12 11 11 10 10 9 9 8 8 8 7 7 6 6 6 6 5 5 5
13 15 15 14 15 15 15 15 15 15 16 17 17 17 17 17 17 16 16 15 14 14 13 13 12 12 11 11 10 10 9 8 8 8 7 7 6 6 6 5 5 5 4 4
12 13 11 14 17 16 16 16 16 16 16 16 17 17 17 17 16 16 15 14 14 13 13 12 12 11 11 10 10 9 9 8 8 7 7 6 6 5 5 5 4 4 4 3
11 11 12 15 16 16 15 15 16 16 16 17 17 16 16 16 16 15 15 14 14 13 13 12 11 11 10 10 9 9 8 8 7 6 6 5 5 5 4 4 3 3 3 3
11 11 11 15 16 17 16 14 16 16 15 16 15 12 13 15 15 15 14 14 13 13 12 11 11 10 10 9 9 8 8 7 6 6 5 5 4 4 3 3 3 2 2 2
10 10 12 16 15 15 13 14 16 17 16 16 13 13 15 15 14 14 13 13 12 12 11 11 10 9 9 8 8 7 7 6 6 5 5 4 4 3 3 2 2 1 1 1
10 10 11 13 13 13 14 16 17 16 16 16 15 15 14 14 13 13 12 12 11 11 10 10 9 9 8 7 7 6 6 5 5 4 4 3 3 2 2 1 1 1 0 -0
12 13 15 15 15 16 16 16 16 16 15 15 14 14 13 13 12 12 11 11 10 10 9 9 8 8 7 7 6 6 5 5 4 4 3 3 2 1 1 0 0 -0 -1 -1
13 14 15 15 16 16 16 16 16 15 15 14 14 13 12 12 11 11 10 10 9 9 8 8 7 7 6 6 5 5 4 4 3 3 2 2 1 1 0 -0 -1 -1 -2 -2
12 14 14 15 15 15 15 15 15 14 14 14 13 12 12 11 10 10 9 9 8 8 7 7 6 6 5 5 5 4 4 3 2 2 1 1 0 -0 -1 -1 -2 -2 -3 -3
12 13 13 14 15 15 15 14 14 14 13 13 12 12 11 10 10 9 8 8 7 7 6 6 5 5 4 4 4 3 3 2 2 1 1 0 -1 -1 -2 -2 -3 -3 -3 -4
14 15 15 15 15 15 14 14 13 13 12 12 11 11 10 9 9 8 7 7 6 6 6 5 4 4 4 3 3 2 2 1 1 0 -0 -1 -2 -2 -3 -3 -3 -4 -4 -5
14 14 13 14 14 14 13 13 12 12 11 11 10 9 9 8 8 7 6 6 5 5 5 4 3 3 3 2 2 1 1 0 -0 -1 -2 -2 -3 -3 -4 -4 -5 -5 -5 -6
13 13 13 13 12 12 12 11 11 10 9 9 8 8 8 7 7 6 5 5 4 4 4 3 3 2 2 1 1 0 -0 -1 -1 -2 -3 -3 -4 -4 -5 -5 -6 -6 -6 -6
12 12 11 11 11 11 10 10 9 8 8 8 7 7 6 6 5 5 4 4 4 3 3 2 2 1 1 0 -0 -1 -1 -2 -2 -3 -4 -4 -5 -5 -6 -6 -6 -7 -7 -7
10 10 9 9 9 9 9 8 8 7 7 6 6 5 5 4 4 4 3 3 3 2 2 1 1 0 -0 -0 -1 -2 -2 -3 -3 -4 -5 -5 -6 -6 -7 -7 -7 -8 -8 -8
10 9 10 9 9 8 7 7 6 6 6 5 5 4 4 3 3 3 2 2 2 1 1 0 -0 -1 -1 -1 -2 -3 -3 -4 -4 -5 -6 -6 -6 -7 -7 -8 -8 -8 -8 -9
8 8 8 8 7 7 6 6 5 5 4 4 3 3 3 2 2 2 1 1 1 0 0 -1 -1 -1 -2 -2 -3 -4 -4 -5 -6 -6 -6 -7 -7 -8 -8 -8 -9 -9 -9 -9
6 6 6 6 6 5 5 4 4 4 3 3 2 2 1 1 1 1 0 0 -0 -1 -1 -2 -2 -2 -3 -3 -4 -5 -6 -6 -7 -7 -7 -8 -8 -8 -9 -9 -9 -9 -10 -10
4 4 4 4 4 3 3 3 3 2 2 1 1 1 1 0 -0 -0 -1 -1 -1 -2 -2 -3 -3 -3 -4 -5 -6 -6 -6 -7 -7 -8 -8 -8 -9 -9 -9 -9 -10 -10 -10 -11
3 2 2 2 2 2 1 1 1 1 1 0 0 0 -0 -1 -1 -1 -1 -2 -2 -3 -3 -4 -4 -4 -5 -6 -6 -7 -7 -7 -8 -8 -9 -9 -9 -10 -10 -10 -10 -11 -11 -11
1 1 1 1 1 0 0 0 -0 -0 -0 -0 -1 -1 -1 -2 -2 -2 -3 -3 -4 -4 -4 -5 -5 -6 -7 -7 -7 -7 -8 -8 -8 -9 -9 -10 -10 -10 -11 -11 -11 -11 -11 -11
-0 -0 -0 -0 -0 -1 -1 -1 -1 -1 -1 -2 -2 -2 -2 -3 -3 -3 -4 -4 -5 -5 -5 -6 -6 -7 -7 -7 -8 -8 -8 -9 -9 -9 -10 -10 -10 -11 -11 -11 -11 -11 -12 -12
-1 -1 -1 -2 -2 -2 -2 -2 -3 -3 -3 -3 -3 -3 -4 -4 -4 -5 -5 -5 -6 -6 -6 -7 -7 -7 -8 -8 -8 -8 -9 -9 -10 -10 -10 -10 -11 -11 -11 -11 -12 -12 -12 -12
-2 -2 -2 -3 -3 -3 -3 -3 -3 -3 -4 -4 -4 -4 -4 -5 -5 -5 -6 -6 -7 -7 -7 -7 -8 -8 -8 -8 -9 -9 -9 -10 -10 -10 -10 -11 -11 -11 -11 -11 -12 -12 -12 -12
-3 -3 -4 -4 -4 -4 -4 -4 -4 -4 -5 -5 -5 -5 -6 -6 -6 -6 -7 -7 -7 -8 -8 -8 -8 -9 -9 -9 -9 -10 -10 -10 -10 -10 -11 -11 -11 -11 -12 -12 -12 -12 -12 -12

GEFSNGP_850_meantemp_144.txt.gz
Temperature
11 12 11 11 12 12 12 12 12 12 12 14 14 13 15 16 17 17 17 17 17 16 16 16 15 14 14 13 13 12 12 11 11 10 10 9 9 8 8 7 7 7 6 6
11 12 11 12 12 12 12 12 12 12 12 13 14 15 15 16 16 16 17 17 17 16 16 15 15 14 14 13 12 12 11 11 10 10 9 9 8 8 7 7 6 6 6 6
10 11 11 11 12 12 12 12 12 13 14 14 13 13 14 16 16 16 17 17 16 16 16 15 15 14 13 13 12 11 11 10 10 9 9 8 8 7 7 6 6 6 5 5
8 10 10 12 12 13 13 13 13 12 13 13 13 15 16 17 17 17 17 16 16 16 15 15 14 14 13 12 12 11 10 10 9 9 8 8 7 7 6 6 5 5 5 4
7 8 9 10 11 12 12 12 13 13 13 13 14 14 14 16 16 17 16 16 16 15 15 14 14 13 12 12 11 10 10 9 9 8 8 7 7 6 6 5 5 4 4 3
7 8 9 11 12 13 12 12 13 12 12 12 12 11 13 16 16 16 16 15 15 14 14 13 13 12 12 11 10 10 9 9 8 8 7 6 6 5 5 4 4 3 3 2
7 8 9 11 12 12 12 12 14 14 14 13 11 14 16 16 15 15 15 14 14 14 13 13 12 11 11 10 10 9 9 8 7 7 6 6 5 5 4 4 3 3 2 2
7 7 9 11 10 12 13 15 15 15 15 15 15 15 15 15 15 14 14 14 13 13 12 12 11 11 10 9 9 8 8 7 6 6 5 5 4 4 3 3 2 2 1 1
9 11 11 12 13 15 16 15 16 16 16 15 15 14 14 14 14 14 13 13 13 12 11 11 10 10 9 8 8 7 7 6 6 5 4 4 3 3 2 2 1 1 0 -0
8 9 11 13 14 15 15 16 16 16 16 15 15 15 14 14 14 13 13 12 12 11 10 10 9 8 8 7 7 6 6 5 5 4 4 3 2 2 2 1 0 -0 -1 -2
8 9 10 12 14 15 15 15 15 15 15 15 14 14 14 13 13 12 12 11 10 10 9 9 8 7 7 6 6 5 5 4 4 3 3 2 2 1 1 -0 -1 -2 -2 -3
10 10 10 12 15 15 15 15 14 14 14 14 14 14 13 13 12 11 11 10 9 9 8 7 7 6 6 5 5 4 4 3 3 2 2 1 1 0 -0 -1 -2 -2 -3 -3
12 13 13 14 14 14 14 14 14 14 13 13 13 13 12 12 11 10 10 9 9 8 7 6 6 5 5 4 4 4 3 3 2 1 1 0 -0 -1 -1 -2 -2 -3 -3 -4
12 12 12 13 13 13 13 13 13 13 12 12 12 11 11 10 10 9 9 8 7 7 6 5 5 4 4 3 3 3 2 1 1 0 -0 -1 -1 -2 -2 -3 -3 -3 -4 -4
11 12 12 12 12 12 13 12 12 12 11 11 11 10 10 9 9 8 7 7 6 6 5 4 4 4 3 3 2 2 1 1 0 -0 -1 -2 -2 -3 -3 -4 -4 -5 -5 -5
11 11 11 11 11 11 11 11 11 11 10 10 10 9 9 8 7 7 6 6 5 5 4 4 3 3 2 2 1 1 0 -0 -1 -1 -2 -2 -3 -4 -4 -5 -5 -6 -6 -6
9 9 9 10 10 10 10 10 10 10 9 9 8 8 7 6 6 5 5 4 4 4 3 3 2 2 1 1 0 -0 -1 -1 -2 -2 -3 -3 -4 -5 -5 -6 -6 -7 -7 -7
9 9 10 10 10 9 9 9 9 9 8 8 7 6 6 5 5 5 4 3 3 2 2 1 1 1 0 -0 -1 -1 -2 -2 -3 -3 -4 -5 -5 -6 -6 -7 -7 -8 -8 -8
8 8 8 8 9 9 8 8 8 7 7 6 6 5 5 4 4 3 3 2 2 1 1 0 -0 -0 -1 -1 -2 -2 -3 -3 -4 -4 -5 -6 -6 -6 -7 -7 -8 -8 -8 -8
6 7 7 7 7 7 7 7 6 6 5 5 5 4 3 3 3 2 1 1 1 0 -0 -1 -1 -2 -2 -2 -3 -3 -4 -4 -5 -5 -6 -6 -7 -7 -7 -8 -8 -9 -9 -9
5 5 5 5 5 5 5 5 5 4 4 3 3 3 2 2 1 1 0 -0 -1 -1 -2 -2 -2 -3 -3 -3 -4 -4 -5 -5 -6 -6 -7 -7 -7 -8 -8 -8 -9 -9 -9 -9
4 4 4 4 4 3 3 3 3 3 2 2 2 1 1 0 -0 -1 -1 -1 -2 -2 -3 -3 -3 -3 -4 -4 -5 -5 -6 -6 -6 -7 -7 -8 -8 -8 -8 -9 -9 -9 -10 -10
2 2 2 2 2 2 2 2 1 1 1 1 0 0 -0 -1 -1 -2 -2 -3 -3 -3 -4 -4 -4 -4 -5 -5 -5 -6 -6 -7 -7 -7 -8 -8 -8 -9 -9 -9 -9 -10 -10 -10
1 1 1 1 1 1 0 -0 -0 -0 -1 -1 -1 -1 -2 -2 -2 -3 -3 -4 -4 -4 -4 -4 -5 -5 -5 -6 -6 -6 -7 -7 -7 -8 -8 -8 -9 -9 -9 -9 -10 -10 -10 -10
-1 -0 -1 -1 -1 -1 -1 -1 -2 -2 -2 -2 -2 -3 -3 -3 -3 -4 -4 -4 -4 -5 -5 -5 -5 -6 -6 -6 -7 -7 -7 -8 -8 -8 -9 -9 -9 -9 -9 -10 -10 -10 -10 -10
-2 -2 -2 -2 -2 -2 -2 -3 -3 -3 -3 -3 -4 -4 -4 -4 -4 -5 -5 -5 -5 -6 -6 -6 -6 -7 -7 -7 -7 -8 -8 -8 -8 -8 -9 -9 -9 -10 -10 -10 -10 -10 -10 -10
-3 -3 -3 -3 -4 -4 -4 -4 -4 -4 -4 -4 -5 -5 -5 -5 -5 -5 -6 -6 -6 -6 -7 -7 -7 -7 -7 -8 -8 -8 -8 -8 -9 -9 -9 -9 -10 -10 -10 -10 -10 -10 -10 -11

GEFSNGP_850_meantemp_150.txt.gz
Temperature
10 10 9 10 10 9 10 10 10 11 11 13 13 13 14 15 16 16 17 17 17 17 17 17 17 16 16 15 15 14 13 13 13 12 11 11 11 10 10 9 9 8 8 7
9 9 9 10 10 10 10 10 10 10 11 13 13 13 13 15 15 15 17 17 17 17 17 17 16 16 15 15 14 14 13 13 12 11 11 11 10 10 9 9 8 8 7 7
8 9 9 9 10 10 10 9 10 11 13 13 12 11 13 15 15 16 17 17 17 17 17 17 16 16 15 15 14 13 13 12 11 11 10 10 10 9 9 8 8 7 7 6
7 8 8 10 10 11 11 11 10 11 11 12 12 14 15 16 16 16 17 17 17 17 17 16 16 15 15 14 13 13 12 12 11 10 10 9 9 9 8 8 7 7 6 6
6 7 8 9 9 10 10 10 11 11 11 11 13 12 13 16 16 16 17 17 17 16 16 16 15 15 14 14 13 12 12 11 10 10 9 9 8 8 7 7 6 6 6 5
6 7 8 10 10 10 10 10 11 11 11 11 10 10 13 16 16 16 16 16 16 16 15 15 15 14 14 13 12 12 11 10 10 9 9 8 8 7 7 6 6 5 5 5
6 7 8 9 10 10 10 11 12 12 12 11 10 13 15 15 15 15 15 15 15 15 15 14 14 13 13 12 12 11 10 10 9 8 8 7 7 6 6 5 5 4 4 4
6 7 8 9 8 10 11 13 13 13 14 13 13 14 14 14 15 15 15 14 14 14 14 13 13 12 12 12 11 10 10 9 8 8 7 6 6 5 5 4 4 4 3 3
8 9 10 10 11 13 14 13 14 14 15 14 14 14 14 14 14 14 14 14 13 13 13 13 12 12 11 11 10 9 9 8 7 7 6 6 5 5 4 4 3 3 2 2
7 8 9 10 12 13 13 14 14 14 14 14 14 14 13 13 13 13 13 13 13 13 12 12 11 11 10 10 9 8 8 7 7 6 5 5 4 4 3 3 2 2 1 1
7 7 8 10 11 13 13 13 13 14 14 14 14 13 13 13 13 13 13 12 12 12 12 11 10 10 9 8 8 7 7 6 6 5 4 4 3 3 2 2 1 1 0 -1
8 8 8 10 13 13 13 13 13 13 13 13 13 13 13 13 13 12 12 12 11 11 10 10 9 9 8 7 7 6 6 5 5 4 4 3 2 2 1 1 0 -0 -1 -1
10 10 11 11 12 12 12 12 12 12 13 12 12 12 12 12 12 12 11 11 10 10 10 9 8 8 7 7 6 6 5 5 4 3 3 2 1 1 1 0 -0 -1 -2 -2
10 10 9 10 11 11 11 12 12 12 12 12 11 11 11 11 11 11 10 10 9 9 8 8 7 7 6 6 5 5 4 4 3 2 2 1 1 -0 -1 -1 -1 -2 -2 -3
9 9 9 10 10 10 10 10 11 11 11 11 11 11 11 11 10 10 9 9 8 8 7 7 6 6 5 5 4 4 3 2 2 1 1 0 -1 -1 -2 -2 -3 -3 -3 -3
8 8 8 8 9 9 9 9 10 10 10 10 10 10 10 9 9 8 8 7 7 7 6 6 5 5 4 4 3 3 2 1 1 0 -0 -1 -1 -2 -2 -3 -4 -4 -4 -4
7 7 7 7 8 8 8 9 9 9 9 9 9 9 8 8 8 7 7 6 6 5 5 5 4 4 3 3 2 1 1 0 -0 -1 -1 -2 -2 -3 -3 -4 -4 -5 -5 -5
6 7 7 7 7 8 8 8 8 8 8 8 8 7 7 7 7 6 6 5 5 4 4 3 3 3 2 1 1 0 -0 -1 -1 -2 -2 -3 -3 -4 -4 -5 -5 -5 -6 -6
5 5 6 6 6 6 7 7 7 6 6 6 6 6 6 6 5 5 4 4 4 3 3 2 2 1 1 0 -0 -1 -1 -2 -2 -3 -3 -3 -4 -4 -5 -5 -5 -6 -6 -7
4 4 5 5 5 5 6 6 5 5 5 5 5 5 4 4 4 4 3 3 3 2 2 1 1 0 -0 -1 -1 -2 -2 -3 -3 -3 -4 -4 -5 -5 -5 -6 -6 -7 -7 -7
3 3 3 4 4 4 4 4 4 4 4 4 4 4 4 3 3 2 2 1 1 1 0 -0 -1 -1 -1 -2 -2 -3 -3 -3 -4 -4 -4 -5 -5 -6 -6 -7 -7 -7 -7 -8
1 2 2 2 3 3 3 3 3 3 3 3 3 3 2 2 1 1 1 1 0 -0 -1 -1 -2 -2 -2 -3 -3 -3 -4 -4 -4 -5 -5 -5 -6 -6 -7 -7 -7 -8 -8 -8
-0 0 1 1 1 1 1 1 1 2 2 2 2 2 1 1 0 0 -1 -1 -1 -2 -2 -2 -3 -3 -3 -4 -4 -4 -4 -5 -5 -5 -6 -6 -6 -7 -7 -8 -8 -8 -8 -8
-1 -1 -1 -0 -0 0 -0 -0 -0 0 0 0 -0 -0 -0 -1 -1 -1 -2 -2 -2 -3 -3 -3 -4 -4 -4 -4 -4 -5 -5 -5 -6 -6 -6 -7 -7 -7 -8 -8 -8 -8 -9 -9
-2 -2 -2 -1 -1 -1 -1 -1 -1 -1 -1 -2 -2 -2 -2 -2 -2 -3 -3 -3 -3 -4 -4 -4 -5 -5 -5 -5 -5 -6 -6 -6 -6 -7 -7 -7 -8 -8 -8 -8 -9 -9 -9 -9
-3 -3 -3 -3 -3 -3 -3 -3 -2 -3 -3 -3 -3 -3 -3 -3 -4 -4 -4 -4 -4 -5 -5 -5 -5 -5 -6 -6 -6 -6 -6 -7 -7 -7 -7 -8 -8 -8 -9 -9 -9 -9 -9 -10
-4 -4 -4 -4 -4 -4 -4 -4 -4 -4 -4 -4 -4 -4 -4 -5 -5 -5 -5 -5 -5 -6 -6 -6 -6 -6 -6 -7 -7 -7 -7 -7 -8 -8 -8 -8 -9 -9 -9 -9 -9 -9 -10 -10

GEFSNGP_850_meantemp_156.txt.gz
Temperature
12 12 12 12 13 13 13 14 15 16 16 18 18 18 18 17 16 16 16 16 16 16 17 17 17 17 17 16 16 16 15 15 14 14 13 12 12 11 11 10 10 10 9 9
11 11 11 11 12 13 13 14 15 15 16 18 18 17 17 17 16 15 16 16 16 16 16 17 17 17 16 16 16 15 15 14 14 13 12 12 11 11 10 10 9 9 9 8
10 11 10 11 12 13 13 13 14 14 16 17 17 16 16 16 16 15 15 16 16 16 16 17 17 16 16 16 15 15 14 14 13 13 12 11 11 10 10 9 9 8 8 7
9 9 9 13 14 14 14 14 14 15 16 16 16 16 15 15 15 15 15 16 16 16 16 16 16 16 16 15 15 14 14 13 13 12 11 11 10 10 9 9 8 8 7 7
8 9 10 12 12 13 13 13 15 14 15 15 14 13 14 15 15 15 15 15 15 16 16 16 16 15 15 15 14 14 13 13 12 11 11 10 9 9 8 8 8 7 7 7
8 8 10 13 13 12 13 13 15 14 14 14 13 13 15 15 15 15 15 15 15 15 15 15 15 15 15 14 14 14 13 12 12 11 10 9 9 8 8 7 7 6 6 6
8 8 11 13 11 11 12 14 14 13 13 13 13 14 14 14 14 14 14 14 15 14 14 14 14 14 14 14 13 13 12 12 11 10 9 9 8 8 7 7 6 6 5 5
8 8 10 11 10 12 13 13 12 12 12 12 13 13 13 13 13 13 14 14 14 14 14 13 13 13 13 13 13 12 12 11 10 9 9 8 7 7 6 6 5 5 4 4
9 10 12 11 11 12 12 12 12 12 12 12 12 12 12 12 12 13 13 13 13 13 13 13 13 12 12 12 12 12 11 10 9 9 8 7 7 6 6 5 4 4 3 3
9 10 11 10 11 11 11 11 12 12 12 12 12 12 11 12 12 12 12 12 12 12 12 12 12 12 11 12 11 11 10 9 8 8 7 6 6 5 5 4 4 3 2 2
9 10 10 10 10 11 11 11 11 11 11 11 11 11 11 11 11 11 11 11 11 11 11 11 11 11 11 11 10 10 9 8 7 7 6 6 5 4 4 3 3 2 2 1
9 10 10 11 11 11 10 10 10 10 10 11 11 11 11 11 11 11 11 11 11 11 10 10 10 10 10 9 9 9 8 7 7 6 5 5 4 3 3 2 2 1 1 0
10 9 9 10 10 10 10 10 10 10 10 10 10 10 10 10 10 10 10 10 10 10 10 9 9 9 9 8 8 7 7 6 6 5 4 4 3 3 2 1 1 1 0 -0
8 8 8 8 8 9 9 9 9 9 9 9 9 9 9 9 9 9 9 9 9 9 9 9 8 8 8 7 7 6 6 5 5 4 4 3 2 2 1 1 0 -0 -1 -1
7 7 7 7 7 8 8 8 8 8 8 8 9 9 9 9 8 9 9 9 8 8 8 8 7 7 7 6 6 5 5 4 4 3 3 2 1 1 0 -0 -1 -1 -2 -2
5 5 6 6 6 6 6 6 7 7 7 7 8 8 8 7 7 7 7 7 7 7 7 7 6 6 6 5 5 4 4 3 3 2 1 1 0 -0 -1 -1 -2 -2 -3 -3
4 4 4 4 5 5 5 5 6 6 6 6 7 6 6 6 6 6 6 6 6 6 6 5 5 5 4 4 4 3 3 2 2 1 1 0 -0 -1 -2 -2 -3 -3 -3 -4
3 3 3 3 3 4 4 4 4 5 5 5 5 5 5 5 5 5 5 5 5 4 4 4 4 4 3 3 3 2 2 1 1 0 -0 -1 -2 -2 -3 -3 -3 -4 -4 -4
1 1 2 2 2 3 3 3 3 4 4 4 4 4 4 4 4 4 4 4 4 4 3 3 3 3 2 2 2 1 1 0 -0 -1 -1 -2 -3 -3 -3 -4 -4 -5 -5 -5
1 1 1 1 1 2 2 2 2 3 3 3 3 3 3 3 3 3 2 2 3 3 3 2 2 2 1 1 1 0 -0 -1 -1 -2 -2 -3 -3 -4 -4 -4 -5 -5 -5 -6
-0 0 0 0 0 1 1 1 1 2 2 2 2 2 2 2 2 2 1 2 2 2 1 1 1 1 0 -0 -0 -1 -1 -2 -2 -3 -3 -3 -4 -4 -5 -5 -5 -6 -6 -6
-1 -1 -1 -0 -0 -0 0 0 1 1 1 1 1 1 1 1 1 1 1 1 1 1 0 -0 -0 -0 -1 -1 -1 -2 -2 -3 -3 -3 -4 -4 -5 -5 -5 -5 -6 -6 -6 -7
-2 -2 -2 -1 -1 -1 -1 -1 -0 -0 -0 0 0 0 0 0 0 0 -0 -0 -0 -0 -1 -1 -1 -1 -2 -2 -2 -3 -3 -3 -4 -4 -4 -5 -5 -5 -6 -6 -6 -7 -7 -7
-3 -3 -3 -2 -2 -2 -2 -2 -2 -1 -1 -1 -1 -1 -1 -1 -1 -1 -1 -1 -1 -2 -2 -2 -2 -3 -3 -3 -3 -3 -4 -4 -4 -5 -5 -6 -6 -6 -6 -7 -7 -7 -7 -8
-4 -4 -3 -3 -3 -3 -3 -3 -3 -3 -2 -2 -2 -2 -2 -2 -2 -2 -2 -2 -3 -3 -3 -3 -3 -3 -4 -4 -4 -4 -4 -5 -5 -5 -6 -6 -6 -7 -7 -7 -7 -8 -8 -8
-5 -5 -4 -4 -4 -4 -4 -4 -4 -4 -4 -3 -3 -3 -3 -3 -3 -3 -3 -4 -4 -4 -4 -4 -4 -4 -4 -4 -5 -5 -5 -5 -6 -6 -6 -6 -7 -7 -7 -7 -8 -8 -8 -8
-6 -6 -5 -5 -5 -5 -5 -5 -5 -5 -5 -4 -5 -5 -5 -5 -4 -5 -5 -5 -5 -5 -5 -5 -5 -5 -5 -5 -5 -6 -6 -6 -6 -7 -7 -7 -7 -7 -8 -8 -8 -8 -9 -9

GEFSNGP_850_meantemp_162.txt.gz
Temperature
10 12 12 11 11 11 12 12 12 13 14 16 17 17 17 17 17 17 17 17 17 16 16 16 16 16 16 16 16 16 15 15 15 15 14 14 13 13 12 12 11 11 11 10
9 11 11 11 11 11 12 12 12 13 14 16 17 17 17 17 17 17 17 17 16 16 16 16 16 16 16 16 16 16 15 15 15 14 14 13 13 13 12 12 11 11 10 10
8 10 10 10 11 11 12 12 13 13 14 15 15 16 16 17 17 17 17 16 16 16 16 16 16 16 16 16 16 16 15 15 14 14 13 13 12 12 12 11 11 10 10 9
7 8 8 10 13 13 12 13 13 14 14 14 15 16 17 17 17 16 16 16 16 16 15 15 15 15 16 15 15 15 15 15 14 14 13 13 12 12 11 11 10 10 9 9
6 7 8 11 12 12 12 12 13 13 14 14 15 15 15 16 16 16 16 16 15 15 15 15 15 15 15 15 15 14 14 14 14 13 13 12 12 11 11 10 10 9 9 8
6 6 7 11 12 13 12 11 12 13 13 13 13 12 13 15 15 15 15 15 15 15 15 14 15 14 14 14 14 14 14 14 13 13 12 12 11 11 10 10 9 8 8 7
6 6 8 11 12 12 10 11 12 13 13 13 12 12 13 14 14 14 14 14 14 14 14 14 14 14 14 14 13 13 13 13 12 12 12 11 10 10 9 9 8 8 7 7
6 6 7 10 10 10 11 12 12 12 12 12 12 13 13 13 13 13 13 14 14 14 13 13 13 13 13 13 13 12 12 12 12 11 11 10 10 9 9 8 7 7 6 6
7 8 9 11 11 11 11 11 11 11 11 11 11 12 12 12 12 12 12 12 13 13 13 12 12 12 12 12 12 12 11 11 11 10 10 9 9 9 8 7 6 6 5 5
8 8 9 11 11 11 11 11 11 10 10 10 10 10 11 11 11 11 11 11 11 12 12 12 12 11 11 11 11 11 10 10 10 10 9 9 8 8 7 7 6 5 5 4
7 8 9 10 10 10 10 10 10 10 10 10 10 10 10 10 10 10 10 10 10 10 10 11 11 10 10 10 10 10 9 9 9 9 8 8 7 7 6 6 5 5 4 4
7 9 8 9 10 10 9 9 9 9 9 9 9 9 9 9 9 9 9 10 10 9 10 10 10 10 10 9 9 9 9 9 8 8 7 7 6 5 5 4 4 4 3 3
8 9 9 9 9 8 8 8 8 8 8 8 8 8 8 8 8 8 8 8 9 9 9 9 9 9 9 9 8 8 8 8 7 7 6 6 5 4 4 3 3 2 2 2
7 7 7 7 7 7 7 7 7 7 7 7 7 7 7 7 7 7 7 7 7 7 7 7 8 8 8 8 7 7 7 6 6 6 5 5 4 4 3 3 2 2 1 1
6 6 6 6 6 6 6 6 6 6 6 6 6 6 6 6 6 6 6 6 6 6 6 6 7 7 6 6 6 6 6 5 5 4 4 4 3 3 2 2 1 1 0 -0
5 5 5 5 5 5 5 5 5 5 5 5 5 5 5 5 5 5 5 5 5 5 5 5 6 6 5 5 5 5 4 4 3 3 3 2 2 2 1 1 0 0 -0 -1
4 4 4 3 3 3 3 3 3 3 3 3 4 4 4 4 4 4 4 4 4 4 4 4 4 4 4 4 4 4 3 3 2 2 2 2 2 1 1 0 -0 -1 -1 -2
2 2 2 2 2 2 2 2 2 2 2 2 2 2 2 3 3 3 3 3 3 3 3 3 3 3 3 3 3 2 2 2 1 1 1 1 1 0 -0 -0 -1 -1 -2 -2
1 1 2 2 1 1 1 1 1 1 1 1 1 1 2 2 2 1 1 1 1 2 2 2 2 2 2 2 2 1 1 1 1 0 0 0 -0 -1 -1 -2 -2 -2 -3 -3
0 0 0 0 0 0 0 0 0 1 1 0 0 1 1 0 0 0 0 0 0 1 1 1 1 1 1 1 1 1 0 0 -0 -0 -1 -1 -1 -2 -2 -2 -3 -3 -3 -4
-1 -1 -1 -1 -1 -1 -1 -0 -1 -0 -0 -1 -0 -0 -0 -1 -1 -1 -1 -1 -0 -0 -0 0 0 0 0 0 -0 -0 -1 -1 -1 -1 -2 -2 -2 -2 -3 -3 -3 -4 -4 -5
-3 -2 -2 -2 -2 -2 -2 -1 -2 -2 -1 -2 -1 -1 -1 -1 -2 -1 -1 -1 -1 -1 -1 -1 -1 -1 -1 -1 -1 -1 -2 -2 -2 -2 -2 -3 -3 -3 -3 -4 -4 -4 -5 -5
-4 -4 -4 -3 -3 -3 -2 -2 -2 -2 -2 -2 -2 -2 -2 -2 -2 -2 -2 -2 -2 -2 -2 -2 -2 -2 -2 -2 -2 -2 -2 -2 -3 -3 -3 -3 -3 -4 -4 -4 -5 -5 -5 -6
-5 -5 -5 -4 -4 -4 -3 -3 -3 -3 -3 -3 -3 -3 -3 -3 -3 -3 -3 -3 -3 -3 -3 -3 -3 -3 -3 -3 -3 -3 -3 -3 -3 -3 -3 -4 -4 -4 -5 -5 -5 -6 -6 -6
-6 -6 -5 -5 -5 -5 -5 -5 -4 -4 -4 -4 -4 -4 -4 -4 -3 -3 -3 -3 -3 -3 -4 -4 -3 -3 -3 -4 -4 -4 -4 -4 -4 -4 -4 -5 -5 -5 -5 -6 -6 -6 -7 -7
-6 -6 -6 -6 -6 -6 -6 -5 -5 -5 -5 -5 -5 -5 -5 -5 -4 -4 -4 -4 -4 -4 -4 -4 -4 -4 -4 -4 -5 -5 -5 -5 -5 -5 -5 -5 -6 -6 -6 -6 -7 -7 -7 -7
-7 -7 -7 -7 -7 -6 -6 -6 -6 -6 -6 -6 -6 -6 -5 -5 -5 -5 -5 -5 -5 -5 -5 -5 -5 -5 -5 -5 -5 -5 -5 -5 -5 -6 -6 -6 -6 -7 -7 -7 -7 -7 -7 -8

GEFSNGP_850_meantemp_168.txt.gz
Temperature
7 8 8 8 8 9 9 9 9 10 10 12 12 12 13 14 14 14 15 15 15 16 16 17 17 17 17 17 17 16 16 16 16 16 15 15 14 14 13 13 12 12 11 11
6 7 8 8 8 9 9 9 9 9 10 12 12 13 12 13 13 13 14 14 15 15 15 16 16 16 16 16 16 16 16 16 16 15 15 14 14 14 13 13 12 11 11 10
6 7 7 7 8 9 9 9 9 10 11 11 11 11 12 12 13 13 13 14 14 15 15 15 15 16 16 16 16 15 15 15 15 15 15 14 14 13 13 12 12 11 10 10
5 6 6 8 9 9 9 9 10 10 10 11 11 12 12 13 13 13 13 13 14 14 14 15 15 15 15 15 15 15 15 15 15 14 14 14 13 13 12 12 11 11 10 10
4 5 6 7 8 8 8 9 9 9 10 10 11 11 11 12 12 12 13 13 13 14 14 14 14 14 14 14 14 14 14 14 14 14 14 13 13 12 12 11 11 10 10 9
4 5 5 7 8 9 8 8 9 9 9 9 9 8 10 11 11 12 12 12 12 13 13 13 13 14 14 14 14 14 14 14 14 13 13 13 12 12 11 11 10 9 9 8
4 5 6 7 8 8 7 8 8 9 9 9 8 9 10 10 11 11 11 11 12 12 12 12 13 13 13 13 13 13 13 13 13 13 12 12 11 11 10 10 9 8 8 8
4 4 5 7 7 7 8 9 9 9 9 9 9 9 9 10 10 10 10 11 11 11 11 12 12 12 12 12 12 12 12 12 12 12 11 11 10 10 9 9 8 8 7 7
5 6 7 8 8 9 9 9 9 9 9 9 9 9 9 9 9 9 10 10 10 10 10 11 11 11 11 12 12 11 11 11 11 11 10 10 10 9 8 8 8 7 7 6
4 5 6 7 8 8 8 8 8 8 8 8 8 8 8 8 9 9 9 9 9 9 10 10 10 10 10 10 10 10 10 10 10 10 9 9 9 8 8 8 7 7 6 6
4 5 5 7 7 8 8 8 8 8 8 7 7 7 7 7 8 8 8 8 8 8 9 9 9 9 9 9 9 9 9 9 9 9 8 8 8 7 7 7 7 6 6 5
4 5 5 6 7 7 7 7 7 7 7 7 6 6 6 6 7 7 6 7 7 7 7 7 8 8 8 8 8 8 8 8 8 8 7 7 6 6 5 5 5 5 5 4
5 6 6 6 6 6 6 6 6 6 6 6 6 6 5 5 5 5 5 5 5 6 6 6 6 7 7 7 7 7 7 7 7 6 6 6 5 5 5 4 4 3 3 3
5 5 5 5 5 5 5 5 5 5 5 5 5 5 4 4 4 4 4 4 4 5 5 5 5 6 6 6 6 6 6 6 6 6 5 5 4 4 4 3 3 2 2 2
4 4 4 4 4 4 4 4 4 4 4 4 4 4 3 3 3 3 3 3 3 3 4 4 4 5 5 4 4 5 5 5 5 4 4 4 3 3 3 2 2 1 1 1
3 3 3 3 3 3 3 3 3 3 3 3 3 3 2 2 2 2 2 2 2 2 3 3 3 3 3 3 3 3 3 3 3 3 3 2 2 2 1 1 1 0 0 -0
2 1 1 2 2 2 2 2 1 1 1 1 1 1 1 1 1 1 1 1 1 2 2 2 2 2 2 3 3 2 2 2 2 2 2 1 1 1 1 0 0 -0 -1 -1
1 1 1 1 1 1 1 1 1 0 0 0 0 0 0 0 0 0 0 0 0 1 1 1 1 1 1 1 1 1 1 1 1 1 1 0 0 0 -0 -0 -1 -1 -1 -2
-0 -1 -0 -0 -0 -0 -0 -0 -0 -0 -0 -0 -0 -0 -0 -1 -1 -1 -1 -1 -1 -0 -0 0 0 0 0 0 0 0 0 0 0 -0 -0 -0 -1 -1 -1 -1 -1 -2 -2 -2
-2 -2 -2 -2 -2 -2 -2 -1 -1 -1 -1 -1 -1 -1 -1 -1 -1 -2 -2 -2 -1 -1 -1 -1 -1 -1 -1 -1 -1 -1 -1 -1 -1 -1 -1 -1 -1 -1 -2 -2 -2 -3 -3 -3
-3 -3 -3 -3 -3 -2 -2 -2 -2 -2 -2 -2 -2 -2 -2 -2 -2 -2 -3 -3 -2 -2 -2 -2 -2 -2 -2 -2 -2 -2 -2 -2 -2 -2 -2 -2 -2 -2 -2 -3 -3 -3 -4 -4
-4 -4 -4 -4 -3 -3 -3 -3 -3 -3 -3 -3 -3 -3 -3 -3 -3 -3 -3 -3 -3 -3 -3 -3 -3 -3 -3 -3 -3 -2 -2 -2 -2 -2 -2 -2 -3 -3 -3 -3 -4 -4 -4 -4
-5 -5 -5 -5 -4 -4 -4 -4 -4 -4 -4 -4 -4 -4 -4 -4 -4 -4 -4 -4 -4 -4 -4 -3 -3 -3 -3 -3 -3 -3 -3 -3 -3 -3 -3 -3 -3 -3 -3 -4 -4 -4 -5 -5
-6 -6 -5 -5 -5 -5 -5 -5 -5 -4 -4 -4 -5 -5 -5 -5 -5 -5 -5 -4 -4 -4 -4 -4 -4 -4 -4 -4 -3 -4 -4 -3 -3 -3 -4 -4 -4 -4 -4 -4 -5 -5 -5 -5
-6 -6 -6 -6 -6 -6 -6 -6 -5 -5 -5 -5 -5 -5 -5 -5 -5 -5 -5 -5 -5 -5 -5 -5 -5 -4 -4 -4 -4 -4 -4 -4 -4 -4 -4 -4 -4 -5 -5 -5 -5 -6 -6 -6
-7 -7 -7 -7 -7 -7 -7 -7 -7 -6 -6 -6 -6 -6 -6 -6 -6 -6 -5 -5 -5 -5 -5 -5 -5 -5 -5 -5 -5 -5 -5 -5 -5 -5 -5 -5 -5 -5 -5 -6 -6 -6 -6 -6
-8 -8 -8 -8 -8 -8 -8 -8 -7 -7 -7 -7 -7 -7 -7 -6 -6 -6 -6 -6 -6 -6 -6 -5 -5 -5 -5 -5 -5 -5 -5 -5 -5 -5 -6 -6 -6 -6 -6 -6 -6 -6 -7 -7

GEFSNGP_850_meantemp_174.txt.gz
Temperature
5 6 6 6 6 7 7 7 7 8 8 10 10 9 10 10 11 11 11 12 12 12 13 13 13 14 14 14 15 15 15 15 15 15 15 15 15 15 14 14 13 13 13 12
5 6 6 6 6 7 7 7 7 8 8 9 9 10 9 10 10 10 11 11 11 12 12 12 13 13 14 14 14 14 14 14 15 15 15 15 14 14 14 13 13 13 12 12
5 5 5 5 6 7 7 7 7 8 9 9 8 9 9 10 10 10 10 10 11 11 11 12 12 12 13 13 13 13 14 14 14 14 14 14 14 13 13 13 13 12 12 11
4 4 4 6 7 7 7 7 8 8 8 8 8 9 10 10 10 10 10 10 10 11 11 11 11 12 12 13 13 13 13 13 13 13 13 13 13 13 12 12 12 12 11 11
4 4 4 6 6 6 6 6 7 7 8 8 8 8 8 9 9 9 9 10 10 10 10 10 11 11 11 12 12 12 12 12 12 12 12 12 12 12 12 12 11 11 11 10
3 4 4 6 7 7 7 6 7 7 7 7 7 6 7 9 9 9 9 9 9 9 10 10 10 10 10 11 11 11 11 11 11 11 11 11 12 11 11 11 11 10 10 9
3 4 5 6 6 6 6 6 7 7 7 7 6 7 8 8 8 8 8 8 9 9 9 9 9 9 9 10 10 10 10 10 10 10 11 11 11 10 10 10 10 9 9 8
3 4 4 5 5 5 6 7 7 7 7 7 7 7 7 7 7 7 8 8 8 8 8 9 9 9 9 9 9 9 9 9 10 10 10 10 9 9 9 9 9 8 8 7
4 5 5 6 6 7 7 6 7 7 7 7 6 6 6 6 7 7 7 7 7 7 8 8 8 8 8 8 8 8 8 9 9 9 9 9 8 8 8 8 8 8 7 7
3 4 4 5 6 6 7 6 6 6 6 6 6 6 6 6 6 6 6 6 6 6 7 7 7 7 7 7 7 7 7 8 8 8 8 8 8 7 8 7 7 7 6 6
3 4 4 5 6 6 6 6 6 6 5 5 5 5 5 5 5 5 5 5 5 5 6 6 6 6 6 6 6 6 6 7 7 7 7 7 7 6 7 7 7 7 6 5
3 4 4 4 5 5 5 5 5 5 5 5 4 4 4 4 4 4 4 5 5 5 5 5 5 5 5 5 5 5 6 6 6 6 6 5 5 5 5 5 5 5 5 5
4 4 4 5 5 5 4 4 4 4 4 4 4 3 3 3 3 3 3 4 3 3 3 4 4 4 4 4 4 4 5 5 5 5 5 5 5 4 4 4 3 3 3 3
4 3 3 3 4 4 3 3 3 3 3 3 3 3 2 2 2 2 2 2 2 2 2 2 3 3 3 3 3 3 4 4 4 4 4 4 4 4 3 3 3 2 2 2
3 3 2 3 3 2 2 2 2 2 2 2 2 2 2 1 1 1 1 1 1 1 1 1 2 2 2 2 3 3 3 3 3 3 3 3 3 3 2 2 2 2 2 1
2 2 1 1 1 1 1 1 1 1 1 1 1 1 1 0 0 0 0 0 0 0 1 1 1 1 1 2 2 2 2 2 2 2 2 2 2 2 1 1 1 1 1 1
-0 -0 0 0 0 0 0 0 0 0 0 0 0 -0 -0 -0 -1 -1 -1 -1 -1 -0 -0 0 0 1 1 1 1 1 1 1 1 1 1 1 1 1 1 1 0 0 0 -0
-1 -1 -1 -1 -1 -1 -1 -1 -1 -1 -1 -1 -1 -1 -1 -1 -1 -1 -1 -1 -1 -1 -1 -1 -0 -0 -0 -0 -0 0 0 -0 0 0 0 0 -0 -0 -0 -0 -0 -1 -1 -1
-2 -2 -2 -2 -2 -2 -2 -2 -2 -1 -1 -1 -2 -2 -2 -2 -2 -2 -2 -2 -2 -2 -1 -1 -1 -1 -1 -1 -1 -1 -1 -1 -1 -1 -1 -1 -1 -1 -1 -1 -1 -1 -2 -2
-3 -3 -3 -3 -3 -3 -3 -2 -2 -2 -2 -2 -2 -2 -3 -3 -3 -3 -3 -3 -3 -3 -2 -2 -2 -2 -2 -2 -2 -2 -2 -2 -2 -1 -2 -1 -1 -1 -2 -2 -2 -2 -2 -3
-4 -4 -4 -4 -4 -4 -4 -4 -4 -3 -3 -3 -3 -3 -3 -3 -3 -4 -4 -4 -3 -3 -3 -3 -3 -3 -3 -3 -3 -3 -2 -2 -2 -2 -2 -2 -2 -2 -3 -3 -3 -3 -3 -3
-5 -5 -5 -5 -5 -5 -5 -5 -4 -4 -4 -4 -4 -4 -4 -4 -4 -4 -4 -4 -4 -4 -4 -4 -4 -4 -3 -3 -3 -3 -3 -3 -3 -3 -3 -3 -3 -3 -3 -3 -3 -3 -4 -4
-6 -6 -6 -6 -6 -6 -5 -5 -5 -5 -5 -5 -5 -5 -5 -5 -5 -5 -5 -5 -5 -5 -5 -5 -5 -4 -4 -4 -4 -4 -4 -4 -4 -3 -3 -3 -3 -4 -4 -4 -4 -4 -4 -4
-6 -6 -6 -6 -6 -6 -6 -6 -6 -6 -6 -6 -6 -6 -6 -6 -6 -6 -6 -6 -6 -5 -5 -5 -5 -5 -5 -5 -4 -4 -4 -4 -4 -4 -4 -4 -4 -4 -4 -4 -5 -5 -5 -5
-7 -7 -7 -7 -7 -7 -7 -7 -7 -7 -6 -6 -6 -6 -6 -6 -6 -6 -6 -6 -6 -6 -6 -6 -6 -5 -5 -5 -5 -5 -5 -5 -5 -5 -5 -5 -5 -5 -5 -5 -5 -5 -5 -5
-7 -7 -8 -8 -8 -8 -8 -8 -8 -7 -7 -7 -7 -7 -7 -7 -7 -7 -7 -7 -7 -7 -7 -6 -6 -6 -6 -6 -6 -5 -5 -5 -5 -5 -5 -5 -5 -5 -5 -5 -6 -6 -6 -6
-8 -8 -8 -8 -8 -8 -8 -8 -8 -8 -8 -8 -8 -7 -7 -7 -7 -7 -7 -7 -7 -7 -7 -7 -7 -6 -6 -6 -6 -6 -6 -6 -5 -5 -5 -6 -6 -6 -6 -6 -6 -6 -6 -6

GEFSNGP_850_meantemp_180.txt.gz
Temperature
8 9 8 8 8 8 8 9 9 10 11 12 13 13 12 12 11 11 11 10 10 10 10 10 11 11 11 12 12 12 12 12 12 12 13 13 13 13 12 12 12 12 12 11
7 8 8 8 8 8 9 9 9 10 10 12 12 12 11 11 11 11 10 10 10 10 10 10 10 11 11 11 11 11 12 12 12 12 12 12 12 12 12 12 12 11 11 11
7 8 7 7 8 9 9 9 9 9 11 11 11 11 11 11 10 10 9 9 9 9 9 9 10 10 10 10 11 11 11 11 11 11 11 11 11 11 11 11 11 11 11 10
6 6 5 9 10 10 9 10 10 10 10 10 10 10 10 10 9 9 9 9 8 8 9 9 9 9 9 10 10 10 10 10 11 10 10 11 11 10 10 10 10 10 10 10
5 6 7 9 9 9 8 9 10 10 10 10 9 9 9 9 8 8 8 8 8 8 8 8 8 8 9 9 9 9 9 10 10 10 10 10 10 10 10 10 10 10 9 9
5 5 6 9 9 9 8 8 9 9 9 9 9 8 9 8 7 7 7 7 7 7 7 7 7 8 8 8 8 9 9 9 9 9 9 9 9 9 9 9 9 9 8 8
5 5 7 9 8 8 7 8 8 8 8 7 8 8 7 7 6 6 6 6 6 6 6 6 7 7 7 7 7 8 8 8 8 8 8 8 8 8 8 8 8 8 8 8
5 5 6 8 7 7 8 8 7 7 7 6 6 6 6 6 5 5 5 5 5 5 6 6 6 6 6 7 7 7 7 7 7 7 7 7 7 7 7 7 7 7 7 7
6 7 9 7 7 7 7 7 6 6 6 5 5 5 5 5 5 5 5 4 5 5 5 5 5 5 5 6 6 6 6 6 6 6 6 6 6 6 6 6 6 6 6 6
6 7 8 7 6 6 6 6 6 5 5 5 5 5 4 4 4 4 4 4 4 4 4 4 5 5 4 5 5 5 5 5 5 5 5 6 6 6 5 5 5 5 5 5
5 7 7 6 6 6 5 5 5 4 4 4 4 4 3 3 3 3 3 3 3 3 3 3 4 4 4 4 4 4 4 4 4 4 4 4 5 5 4 5 5 5 5 5
5 6 6 6 6 5 5 4 4 4 4 3 3 3 3 3 3 2 2 2 2 2 3 3 3 3 3 3 3 3 3 3 3 3 3 3 3 3 3 4 4 4 4 4
5 5 5 5 4 4 4 3 3 3 3 2 2 2 2 2 2 2 2 2 2 1 2 2 2 2 2 2 2 2 2 2 2 2 2 3 3 3 3 3 3 3 3 3
4 3 3 3 3 3 2 2 2 2 2 1 1 1 1 1 1 1 1 1 1 1 1 1 1 1 1 1 1 2 2 2 2 2 2 2 2 2 2 2 2 2 2 2
2 2 2 2 2 2 1 1 1 1 1 1 1 1 0 0 0 0 0 -0 -0 -0 -0 -0 -0 0 0 1 1 1 1 1 1 1 1 1 1 1 1 1 1 1 1 1
1 1 1 1 0 -0 -0 -1 -1 -1 -1 -1 -1 -1 -1 -1 -1 -1 -1 -1 -1 -1 -1 -1 -1 -1 -0 -0 0 0 0 0 0 0 0 0 0 0 0 0 -0 -0 -0 -0
-1 -1 -1 -1 -1 -1 -2 -2 -2 -2 -2 -2 -2 -1 -1 -1 -1 -1 -1 -2 -2 -2 -2 -2 -2 -1 -1 -1 -1 -0 -0 -0 -0 -0 -0 -0 -0 -1 -1 -1 -1 -1 -1 -1
-2 -2 -2 -3 -3 -3 -3 -3 -2 -2 -2 -2 -2 -2 -2 -2 -2 -2 -2 -2 -2 -3 -3 -3 -2 -2 -2 -2 -1 -1 -1 -1 -1 -1 -1 -1 -1 -1 -1 -1 -1 -2 -2 -2
-3 -3 -3 -3 -3 -3 -3 -3 -3 -3 -3 -3 -3 -3 -3 -3 -3 -3 -3 -3 -3 -3 -3 -3 -3 -3 -2 -2 -2 -2 -2 -2 -2 -2 -2 -2 -2 -2 -2 -2 -2 -2 -2 -2
-3 -4 -4 -4 -4 -4 -4 -4 -4 -4 -4 -4 -4 -4 -4 -4 -4 -4 -4 -4 -4 -4 -4 -4 -4 -3 -3 -3 -3 -3 -3 -2 -3 -3 -3 -3 -3 -3 -3 -2 -2 -2 -2 -2
-4 -4 -4 -4 -4 -4 -5 -5 -5 -5 -5 -5 -5 -5 -4 -4 -5 -5 -5 -5 -4 -4 -5 -4 -4 -4 -4 -4 -4 -3 -3 -3 -3 -3 -3 -3 -3 -3 -3 -3 -3 -3 -3 -3
-5 -5 -5 -5 -5 -5 -5 -5 -5 -5 -5 -5 -5 -5 -5 -5 -5 -5 -5 -6 -5 -5 -5 -5 -5 -5 -4 -4 -4 -4 -4 -4 -4 -4 -4 -4 -4 -4 -4 -4 -4 -3 -4 -4
-5 -5 -6 -6 -6 -6 -6 -6 -6 -6 -6 -6 -6 -6 -6 -6 -6 -6 -6 -6 -6 -6 -6 -5 -5 -5 -5 -5 -5 -5 -5 -5 -5 -5 -5 -5 -4 -4 -4 -4 -4 -4 -4 -4
-6 -6 -6 -7 -7 -7 -7 -7 -7 -7 -7 -7 -6 -6 -7 -7 -7 -7 -7 -7 -7 -6 -6 -6 -6 -6 -5 -5 -6 -5 -5 -5 -5 -5 -5 -5 -5 -5 -5 -5 -5 -4 -4 -4
-6 -7 -7 -7 -7 -7 -7 -7 -7 -7 -7 -7 -7 -7 -7 -7 -7 -7 -7 -7 -7 -7 -7 -7 -6 -6 -6 -6 -6 -6 -6 -6 -6 -5 -5 -5 -5 -5 -5 -5 -5 -5 -5 -5
-7 -7 -8 -8 -8 -8 -8 -8 -8 -8 -8 -8 -8 -8 -8 -8 -8 -8 -8 -7 -7 -7 -7 -7 -7 -7 -7 -7 -6 -6 -6 -6 -6 -6 -6 -6 -6 -6 -6 -6 -5 -5 -5 -5
-8 -8 -8 -8 -8 -8 -8 -9 -9 -9 -9 -9 -9 -8 -8 -8 -8 -8 -8 -8 -8 -8 -8 -8 -7 -7 -7 -7 -7 -7 -7 -6 -6 -7 -6 -6 -6 -6 -6 -6 -6 -6 -6 -6

GEFSNGP_850_meantemp_186.txt.gz
Temperature
8 9 9 9 9 9 8 8 8 9 10 11 11 11 11 12 12 12 12 11 11 11 10 10 10 10 10 10 10 10 11 10 11 11 11 11 11 11 11 11 11 10 10 10
7 8 9 8 9 9 9 9 9 9 9 11 11 11 11 11 11 11 11 10 10 10 10 9 9 9 9 9 9 9 10 10 10 10 10 10 10 10 10 10 10 10 10 10
6 7 7 7 8 9 9 9 9 9 9 10 10 10 10 11 11 10 10 9 9 9 8 8 8 8 8 8 8 9 9 9 9 9 9 9 9 9 9 9 9 9 9 9
5 5 5 7 10 10 10 10 10 10 10 10 10 10 10 10 10 9 9 9 8 8 8 8 8 8 8 8 8 8 8 8 8 8 8 8 8 9 9 9 9 9 8 8
4 4 6 8 9 10 9 9 9 9 9 9 10 9 9 9 9 8 8 8 7 7 7 7 7 7 7 7 7 7 7 7 7 7 7 7 8 8 8 8 8 8 8 7
4 4 5 8 9 10 9 7 8 8 8 8 8 6 7 8 7 7 7 7 6 6 6 6 6 6 6 6 6 6 6 6 6 6 7 7 7 7 7 7 7 7 7 7
4 4 5 8 9 9 6 7 8 8 8 7 7 6 7 7 6 6 6 6 6 6 5 5 5 5 5 5 5 5 5 5 6 6 6 6 6 6 6 6 6 6 6 6
4 4 5 8 8 7 7 8 8 8 7 7 7 7 6 6 6 6 5 5 5 5 5 5 5 5 5 4 4 5 5 5 5 5 5 5 5 5 5 5 5 5 5 5
5 6 7 8 8 8 8 7 7 7 7 6 6 6 5 5 5 5 5 4 4 4 4 4 4 4 4 4 4 4 4 4 4 4 4 4 4 5 5 5 4 4 4 4
6 6 7 8 8 8 7 7 7 6 6 6 5 5 5 4 4 4 4 4 3 3 3 3 3 3 3 3 3 3 3 3 3 3 4 4 4 4 4 4 4 4 4 4
5 6 6 7 7 7 6 6 6 5 5 5 5 4 4 4 4 3 3 3 3 2 2 2 2 2 2 2 2 2 2 2 2 2 2 3 3 3 3 3 3 3 3 3
5 6 6 6 6 6 5 5 5 4 4 4 4 3 3 3 3 2 2 2 2 2 1 1 1 1 1 1 1 1 1 1 1 1 2 2 2 2 2 2 2 2 2 2
6 6 6 6 5 5 4 4 4 4 3 3 2 2 2 1 1 1 1 1 1 0 0 0 0 0 0 0 0 0 0 1 1 1 1 1 1 1 2 2 1 1 1 1
5 5 4 4 4 4 3 3 3 2 2 2 1 1 1 0 0 0 0 -0 -0 -1 -1 -1 -1 -1 -1 -1 -1 -0 -0 -0 -0 -0 0 0 1 1 1 1 1 1 1 1
4 3 3 3 3 2 2 2 2 1 1 0 0 -0 -1 -1 -1 -1 -1 -1 -1 -1 -1 -1 -1 -1 -1 -1 -1 -1 -1 -1 -1 -1 -1 -0 -0 -0 -0 -0 -0 -0 -0 -0
2 2 2 2 1 1 1 0 0 -0 -1 -1 -1 -1 -2 -2 -2 -2 -2 -2 -2 -2 -2 -2 -2 -2 -2 -2 -2 -2 -1 -2 -1 -1 -1 -1 -1 -1 -1 -1 -1 -1 -1 -1
1 0 0 0 -0 -0 -1 -1 -1 -2 -2 -2 -2 -2 -2 -3 -3 -3 -3 -3 -3 -3 -3 -3 -3 -3 -3 -3 -2 -2 -2 -2 -2 -2 -2 -2 -2 -2 -2 -2 -2 -2 -2 -2
-0 -0 -1 -1 -1 -2 -2 -2 -2 -3 -3 -3 -3 -3 -3 -4 -4 -4 -4 -3 -4 -3 -3 -3 -3 -3 -3 -3 -3 -3 -3 -3 -3 -3 -3 -2 -2 -2 -2 -2 -2 -2 -2 -2
-1 -2 -2 -2 -2 -3 -3 -3 -3 -3 -4 -4 -4 -4 -4 -4 -4 -4 -4 -4 -4 -4 -4 -4 -4 -4 -4 -4 -4 -4 -4 -4 -4 -3 -3 -3 -3 -3 -3 -3 -3 -3 -3 -3
-2 -3 -3 -3 -3 -3 -4 -4 -4 -4 -4 -4 -5 -5 -5 -5 -5 -5 -5 -5 -5 -5 -5 -5 -5 -4 -4 -4 -4 -4 -4 -4 -4 -4 -3 -3 -3 -3 -3 -4 -3 -3 -3 -3
-3 -3 -3 -4 -4 -4 -4 -5 -5 -5 -5 -5 -5 -5 -5 -5 -6 -6 -6 -6 -5 -6 -6 -6 -5 -5 -5 -5 -5 -4 -4 -4 -4 -4 -4 -4 -4 -4 -4 -4 -4 -4 -4 -4
-4 -4 -4 -4 -4 -5 -5 -5 -5 -5 -5 -6 -6 -6 -6 -6 -6 -6 -6 -6 -6 -6 -6 -6 -6 -6 -6 -5 -5 -5 -5 -5 -5 -5 -5 -5 -4 -4 -4 -4 -4 -4 -4 -4
-4 -4 -5 -5 -5 -5 -5 -6 -6 -6 -6 -6 -6 -6 -7 -7 -7 -7 -7 -7 -7 -7 -7 -7 -6 -6 -6 -6 -6 -6 -6 -5 -5 -5 -5 -5 -5 -5 -5 -5 -5 -5 -4 -4
-5 -5 -5 -5 -6 -6 -6 -6 -6 -6 -7 -7 -7 -7 -7 -7 -7 -7 -7 -7 -7 -7 -7 -7 -7 -7 -6 -6 -6 -6 -6 -6 -6 -6 -6 -6 -6 -5 -5 -5 -5 -5 -5 -5
-5 -6 -6 -6 -6 -7 -7 -7 -7 -7 -7 -7 -7 -8 -8 -8 -8 -8 -8 -8 -8 -8 -8 -7 -7 -7 -7 -7 -7 -7 -7 -7 -7 -6 -6 -6 -6 -6 -6 -5 -5 -5 -5 -5
-6 -6 -7 -7 -7 -7 -7 -8 -8 -8 -8 -8 -8 -8 -8 -8 -8 -8 -8 -8 -8 -8 -8 -8 -8 -7 -7 -7 -7 -7 -7 -7 -7 -7 -6 -6 -6 -6 -6 -6 -6 -6 -6 -6
-7 -7 -7 -7 -8 -8 -8 -8 -8 -8 -8 -8 -9 -8 -8 -8 -8 -8 -8 -8 -8 -8 -8 -8 -8 -8 -8 -8 -8 -8 -8 -7 -7 -7 -7 -7 -7 -7 -6 -6 -6 -6 -6 -6